Regional Weather Roundup
Issued by NWS

Home | Current Version | Previous Version | Text Only | Print | Product List | Glossary On
Versions: 1 2 3 4 5 6 7 8 9 10 11 12 13 14 15 16 17 18 19 20 21 22 23 24 25 26 27 28 29 30 31 32 33 34 35 36 37 38 39 40 41 42 43 44 45 46 47 48 49 50
000
ASUS43 KLSX 240407
RWRMO

WEATHER SUMMARY FOR MISSOURI
NATIONAL WEATHER SERVICE SPRINGFIELD MO
1100 PM CDT SAT SEP 23 2017

NOTE: "FAIR" INDICATES FEW OR NO CLOUDS BELOW 12,000 FEET WITH NO
       SIGNIFICANT WEATHER AND/OR OBSTRUCTIONS TO VISIBILITY.
       CURRENT SKY AND/OR WEATHER CONDITIONS ARE NOT AVAILABLE FOR
       CHILLICOTHE AND FARMINGTON.

MOZ001>031-035>038-043-044-053-054-240500-
...NORTHERN AND WESTERN MISSOURI...

CITY           SKY/WX    TMP DP  RH WIND       PRES   REMARKS
KANSAS CTY INT CLEAR     72  67  84 S7        29.96S
KANSAS C DTWN  CLEAR     81  69  67 SE7       29.95S
LEE`S SUMMIT   CLEAR     77  68  73 S5        29.97S
ST JOSEPH      CLEAR     70  68  93 CALM      29.95S
CHILLICOTHE      N/A     72  68  87 CALM      29.98S
KIRKSVILLE     CLEAR     72  63  73 SE7       30.01S

$$
MOZ066>068-077>081-088>096-101>105-240500-
...SOUTHWEST MISSOURI...

CITY           SKY/WX    TMP DP  RH WIND       PRES   REMARKS
SPRINGFIELD    CLEAR     74  64  71 SE8       29.99S
JOPLIN         CLEAR     74  65  73 E6        29.96S
BRANSON        CLEAR     75  64  69 SE6       30.02S

$$
MOZ032>034-039>042-045>050-055>058-069>072-240500-
...CENTRAL MISSOURI...

CITY           SKY/WX    TMP DP  RH WIND       PRES   REMARKS
COLUMBIA       PTCLDY    78  64  61 SE9       30.00S
JEFFERSON CITY CLEAR     75  64  68 SE5       29.98S
ROLLA          CLEAR     75  63  66 SE7       30.03R
SEDALIA        CLEAR     75  69  81 E5        29.99F
WHITEMAN AFB   CLEAR     74  74 100 SE5       29.96F
WARRENSBURG    CLEAR     72  68  88 CALM      29.96F
OSAGE BEACH    CLEAR     73  68  84 S3        30.00S

$$
MOZ051-052-059>065-240500-
...EAST CENTRAL MISSOURI...

CITY           SKY/WX    TMP DP  RH WIND       PRES   REMARKS
ST LOUIS INTL  CLEAR     78  63  59 SE6       30.02R
SPIRIT OF STL  CLEAR     70  67  90 CALM      30.00R
ST CHARLES     CLEAR     72  64  76 E7        30.00R

$$
MOZ072>076-082>087-097>100-106>115-240500-
...SOUTH CENTRAL AND SOUTHEAST MISSOURI...

CITY           SKY/WX    TMP DP  RH WIND       PRES   REMARKS
CAPE GIRARDEAU CLEAR     74  66  76 CALM      30.00R
FARMINGTON     CLEAR     68  65  90 CALM      30.04R
POPLAR BLUFF   CLEAR     71  67  87 CALM      29.99R
WEST PLAINS    CLEAR     69  63  81 CALM      30.04R

$$



USA.gov is the U.S. government's official web portal to all federal, state and local government web resources and services.